Ocean City, MD

6:50 PM EST on November 18, 2017 (GMT -0500)
Ocean City Municipal

Weather History for KOXB - May, 2014

Change the Weather History Date:

Friday, May 9, 2014

  Actual Average (KSBY) Record (KSBY)
Temperature  
Mean Temperature 60 °F -  
Max Temperature 66 °F 70 °F 92 °F (1936)
Min Temperature 54 °F 48 °F 29 °F (1946)
Degree Days  
Heating Degree Days 5    
Growing Degree Days 10 (Base 50)    
Moisture  
Dew Point 55 °F    
Average Humidity 90    
Maximum Humidity 97    
Minimum Humidity 75    
Precipitation  
Precipitation 0.00 in - - ()
Sea Level Pressure  
Sea Level Pressure 30.09 in    
Wind  
Wind Speed 6 mph (ENE)    
Max Wind Speed 9 mph    
Max Gust Speed -    
Visibility 5 miles    
Events Fog    
Averages and records for this station are not official NWS values.
T = Trace of Precipitation, MM = Missing Value Source: NWS Daily Summary

Daily Weather History Graph

Daily Weather History Graph

Search for Another Location

Airport or City:

Trip Planner

Search our weather history database for the weather conditions in past years. The results will help you decide how hot, cold, wet, or windy it might be!

Date:

Astronomy

May. 09, 2014 Rise Set
Actual Time 5:55 AM EDT 7:59 PM EDT
Civil Twilight 5:25 AM EDT 8:28 PM EDT
Nautical Twilight 4:50 AM EDT 9:04 PM EDT
Astronomical Twilight 4:11 AM EDT 9:43 PM EDT
Moon 2:58 PM EDT (5/9) 2:51 AM EDT (5/9)
Length of Visible Light 15h 02m
Length of Day
14h 04m
Waxing Gibbous, 73% of the Moon is Illuminated
May 9
Waxing Gibbous
May 14
Full
May 21
Last Quarter
May 28
New
Jun 5
First Quarter

Hourly Weather History & Observations

Time (EDT) Temp. Dew Point Humidity Pressure Visibility Wind Dir Wind Speed Gust Speed Precip Events Conditions
12:23 AM 57.0 °F 54.0 °F 89% 30.13 in 10.0 mi East 3.5 mph - N/A   Mostly Cloudy
12:53 AM 57.0 °F 54.0 °F 89% 30.14 in 10.0 mi East 5.8 mph - N/A   Overcast
1:18 AM 55.9 °F 54.0 °F 93% 30.14 in 9.0 mi East 4.6 mph - N/A   Overcast
1:29 AM 55.9 °F 53.1 °F 90% 30.15 in 7.0 mi East 4.6 mph - N/A   Overcast
1:42 AM 55.9 °F 54.0 °F 93% 30.14 in 1.8 mi East 6.9 mph - N/A   Overcast
1:53 AM 55.9 °F 54.0 °F 93% 30.14 in 1.0 mi East 5.8 mph - N/A   Overcast
2:02 AM 55.9 °F 54.0 °F 93% 30.14 in 0.8 mi East 4.6 mph - N/A   Mist
2:53 AM 55.0 °F 53.1 °F 93% 30.12 in 0.5 mi ESE 6.9 mph - N/A Fog Fog
3:53 AM 55.0 °F 53.1 °F 93% 30.09 in 0.5 mi SE 8.1 mph - N/A Fog Fog
5:53 AM 54.0 °F 52.0 °F 93% 30.08 in 0.5 mi East 4.6 mph - N/A Fog Fog
6:28 AM 55.0 °F 53.1 °F 93% 30.10 in 2.0 mi NE 5.8 mph - N/A   Overcast
6:37 AM 55.0 °F 53.1 °F 93% 30.10 in 4.0 mi NE 8.1 mph - N/A   Overcast
6:41 AM 55.0 °F 53.1 °F 93% 30.11 in 1.8 mi NE 9.2 mph - N/A   Overcast
6:51 AM 55.4 °F 53.6 °F 94% 30.11 in 0.5 mi NE 8.1 mph - N/A Fog Fog
6:53 AM 55.0 °F 53.1 °F 93% 30.12 in 0.8 mi NE 6.9 mph - N/A   Overcast
7:25 AM 55.0 °F 54.0 °F 96% 30.12 in 1.8 mi NE 6.9 mph - N/A   Overcast
7:51 AM 55.4 °F 53.6 °F 94% 30.12 in 0.8 mi ENE 5.8 mph - N/A   Overcast
8:29 AM 55.0 °F 54.0 °F 96% 30.13 in 1.5 mi ENE 6.9 mph - N/A   Overcast
8:37 AM 55.0 °F 54.0 °F 96% 30.13 in 2.5 mi NE 4.6 mph - N/A   Overcast
8:53 AM 55.0 °F 53.1 °F 93% 30.12 in 1.5 mi NE 6.9 mph - N/A   Overcast
9:23 AM 55.0 °F 53.1 °F 93% 30.13 in 0.5 mi ENE 5.8 mph - N/A Fog Fog
9:53 AM 55.9 °F 54.0 °F 93% 30.12 in 0.8 mi NE 4.6 mph - N/A   Overcast
10:04 AM 55.9 °F 55.0 °F 97% 30.12 in 1.0 mi ENE 6.9 mph - N/A   Overcast
10:12 AM 55.9 °F 54.0 °F 93% 30.12 in 0.8 mi ENE 6.9 mph - N/A   Overcast
11:06 AM 57.0 °F 55.0 °F 93% 30.13 in 2.0 mi NNE 5.8 mph - N/A   Overcast
11:16 AM 57.9 °F 55.9 °F 93% 30.13 in 5.0 mi ENE 6.9 mph - N/A   Overcast
11:48 AM 60.8 °F 55.4 °F 82% 30.13 in 8.0 mi NE 6.9 mph - N/A   Overcast
11:53 AM 60.1 °F 55.0 °F 83% 30.12 in 9.0 mi NE 6.9 mph - N/A   Overcast
12:53 PM 61.0 °F 55.9 °F 83% 30.10 in 8.0 mi NE 6.9 mph - N/A   Overcast
1:53 PM 63.0 °F 57.0 °F 81% 30.09 in 10.0 mi NE 8.1 mph - N/A   Overcast
2:45 PM 66.0 °F 57.9 °F 75% 30.06 in 10.0 mi NNE 8.1 mph - N/A   Scattered Clouds
2:53 PM 66.0 °F 59.0 °F 78% 30.06 in 10.0 mi NNE 8.1 mph - N/A   Partly Cloudy
3:40 PM 63.0 °F 57.9 °F 84% 30.04 in 8.0 mi East 6.9 mph - N/A   Mostly Cloudy
3:53 PM 63.0 °F 57.9 °F 84% 30.04 in 9.0 mi ENE 5.8 mph - N/A   Overcast
4:53 PM 62.1 °F 57.0 °F 84% 30.04 in 10.0 mi East 5.8 mph - N/A   Scattered Clouds
5:53 PM 61.0 °F 57.0 °F 87% 30.02 in 9.0 mi East 4.6 mph - N/A   Clear
6:53 PM 60.1 °F 55.9 °F 86% 30.03 in 9.0 mi Calm Calm - N/A   Clear
7:53 PM 59.0 °F 55.9 °F 90% 30.02 in 8.0 mi ESE 3.5 mph - N/A   Clear
8:51 PM 57.2 °F 55.4 °F 94% 30.03 in 6.0 mi SSE 3.5 mph - N/A   Scattered Clouds
8:53 PM 57.9 °F 55.9 °F 93% 30.03 in 6.0 mi SSE 4.6 mph - N/A   Scattered Clouds
9:00 PM 57.9 °F 55.9 °F 93% 30.03 in 6.0 mi SSE 4.6 mph - N/A   Mostly Cloudy
9:40 PM 57.0 °F 55.9 °F 96% 30.03 in 5.0 mi Calm Calm - N/A   Scattered Clouds
9:53 PM 57.9 °F 55.9 °F 93% 30.03 in 6.0 mi Calm Calm - N/A   Clear
10:53 PM 59.0 °F 55.9 °F 90% 30.03 in 10.0 mi Variable 3.5 mph - N/A   Clear
11:53 PM 60.1 °F 57.0 °F 90% 30.02 in 10.0 mi SSW 3.5 mph - N/A   Clear